This is the latest recevied weather packets stored in our database for station/object WX4ET. If no packets are shown the sender has not sent any weather packets the latest 10 day(s).
| Time | Temp. | Humidity | Pressure | Rain* | Wind** | Luminosity | Snow |
|---|---|---|---|---|---|---|---|
| 1777861825 | 9.44° C | 75% | 1012 hPa | 0 mm | - | 0 W/m² | - |
| 1777861521 | 9.44° C | 75% | 1012.1 hPa | 0 mm | - | 0 W/m² | - |
| 1777861217 | 10° C | 73% | 1011.8 hPa | 0 mm | - | 0 W/m² | - |
| 1777860915 | 10° C | 73% | 1011.6 hPa | 0 mm | - | 0 W/m² | - |
| 1777860612 | 10° C | 72% | 1011.6 hPa | 0 mm | - | 0 W/m² | - |
| 1777860309 | 10° C | 73% | 1011.6 hPa | 0 mm | - | 0 W/m² | - |
| 1777860005 | 10.56° C | 73% | 1011.6 hPa | 0 mm | - | 0 W/m² | - |
| 1777859701 | 10.56° C | 72% | 1011.7 hPa | 0 mm | - | 0 W/m² | - |
| 1777859397 | 10.56° C | 71% | 1011.7 hPa | 0 mm | - | 0 W/m² | - |
| 1777859093 | 11.11° C | 68% | 1011.6 hPa | 0 mm | - | 0 W/m² | - |
| 1777858790 | 11.11° C | 68% | 1011.7 hPa | 0 mm | - | 0 W/m² | - |
| 1777858489 | 11.11° C | 69% | 1011.7 hPa | 0 mm | - | 0 W/m² | - |
| 1777858184 | 11.67° C | 65% | 1011.6 hPa | 0 mm | - | 0 W/m² | - |
| 1777857883 | 11.67° C | 64% | 1011.5 hPa | 0 mm | - | 0 W/m² | - |
| 1777857580 | 11.67° C | 64% | 1011.7 hPa | 0 mm | - | 0 W/m² | - |
| 1777857276 | 12.22° C | 63% | 1011.7 hPa | 0 mm | - | 0 W/m² | - |
| 1777856972 | 12.78° C | 62% | 1011.6 hPa | 0 mm | - | 0 W/m² | - |
| 1777856669 | 12.78° C | 60% | 1011.7 hPa | 0 mm | - | 0 W/m² | - |
| 1777856365 | 13.33° C | 58% | 1011.6 hPa | 0 mm | - | 0 W/m² | - |
| 1777856062 | 14.44° C | 64% | 1011.5 hPa | 0 mm | - | 0 W/m² | - |
| 1777855759 | 15° C | 51% | 1011.5 hPa | 0 mm | - | 0 W/m² | - |
| 1777855457 | 15° C | 52% | 1011.2 hPa | 0 mm | - | 0 W/m² | - |
| 1777855154 | 15° C | 52% | 1011.2 hPa | 0 mm | - | 0 W/m² | - |
| 1777854850 | 15° C | 51% | 1011.3 hPa | 0 mm | - | 0 W/m² | - |
| 1777854547 | 15° C | 49% | 1011.3 hPa | 0 mm | - | 0 W/m² | - |
* Rain latest hour (hover to see other rain measurements)
** Current wind speed in m/s (hover to see current wind gust speed)